Flag for Canada Weather past 2 weeks in Selkirk, Manitoba, Canada

Now
62 °F

Mild.


Feels Like: 62 °F
Forecast: 54 / 77 °F
Wind: 5 mph from Southwest

Location: Winnipeg The Forks

Current Time: Aug 28, 2014 at 8:52:55 AM

Latest Report: Aug 28, 2014 at 8:00 AM


Visibility: N/A

Pressure: 29.93 "Hg

Humidity: 84%

Dew point: 57 °F

Location of SelkirkLocation

Historic Weather in Selkirk — Graph

°F

Selkirk temperature yesterday

Maximum temperature yesterday: 75 °F (at 4:00 PM)
Minimum temperature yesterday: 48 °F (at 6:00 AM)
Average temperature yesterday: 62 °F

Past Weeks' High & Low Weather Summary

 TemperatureHumidityPressure
High90 °F (Aug 15, 4:00 PM)99% (Aug 22, 10:00 AM)30.18 "Hg (Aug 22, 10:00 AM)
Low48 °F (Aug 27, 6:00 AM)33% (Aug 13, 6:00 PM)29.58 "Hg (Aug 24, 7:00 PM)
Average66 °F75%29.90 "Hg
* Reported Aug 13 7:00 AM — Aug 28 7:00 AM, Selkirk, Weather by CustomWeather, © 2014

Note: Actual official high and low records may vary slightly from our data, if they occured in-between our weather recording intervals... More about our weather records

Advertising

Selkirk weather history for previous 24 hours

 ConditionsComfort  
Time TempWeatherWind HumidityBarometerVisibility
7:00 AM
Aug 28
61 °FCool.3 mph85%29.94 "HgN/A
6:00 AM62 °FCool.3 mph83%29.95 "HgN/A
5:00 AM61 °FCool.3 mph83%29.96 "HgN/A
4:00 AM61 °FCool.3 mph82%29.96 "HgN/A
3:00 AM61 °FCool.2 mph81%29.97 "HgN/A
2:00 AM58 °FCool.1 mph85%29.98 "HgN/A
1:00 AM61 °FCool.1 mph74%30.00 "HgN/A
12:00 AM61 °FCool.2 mph74%30.01 "HgN/A
11:00 PM
Aug 27
62 °FCool.2 mph70%30.01 "HgN/A
10:00 PM65 °FMild.1 mph62%30.03 "HgN/A
9:00 PM68 °FMild.2 mph55%30.03 "HgN/A
8:00 PM70 °FMild.3 mph47%30.03 "HgN/A
7:00 PM73 °FMild.3 mph43%30.04 "HgN/A
6:00 PM72 °FMild.5 mph44%30.05 "HgN/A
5:00 PM74 °FMild.5 mph38%30.06 "HgN/A
4:00 PM75 °FMild.6 mph39%30.08 "HgN/A
3:00 PM74 °FMild.7 mph40%30.09 "HgN/A
2:00 PM73 °FMild.5 mph43%30.10 "HgN/A
1:00 PM72 °FMild.6 mph47%30.12 "HgN/A
12:00 PM70 °FMild.6 mph50%30.13 "HgN/A
11:00 AM67 °FMild.2 mph60%30.14 "HgN/A
10:00 AM61 °FCool.2 mph68%30.14 "HgN/A
9:00 AM56 °FCool.No wind81%30.14 "HgN/A
8:00 AM49 °FCool.2 mph87%30.14 "HgN/A
Weather by CustomWeather, © 2014

See weather overviewHow to use our weather pages